When you browse on this site, cookies collect data to enhance your experience and personalize the content and advertising you see.
Visit our Privacy Policy to learn more. By continuing to use the site, you agree to this use of cookies and data.
  • In Slovakia
  • List of Countries
  • For 7 days
  • Water Temperature
  • Satellite Maps
  • Weather Map
  • Weather Widgets
  • user-avatar
    Login

    Hourly Weather Tirana

    Today, 10 December, Monday

    Time Temperature Precipitation Wind Pressure Humidity
    00:00 +8°C° 1.1 mm 6 mps 747 mmHg 83%
    01:00 +9°C° 1.1 mm 6 mps 746 mmHg 83%
    02:00 +9°C° 0.9 mm 6 mps 746 mmHg 86%
    03:00 +8°C° 0.9 mm 6 mps 746 mmHg 88%
    04:00 +8°C° 0.9 mm 6 mps 746 mmHg 91%
    05:00 +8°C° 0.3 mm 6 mps 746 mmHg 90%
    06:00 +8°C° 0.3 mm 7 mps 746 mmHg 90%
    07:00 +8°C° 0.3 mm 7 mps 747 mmHg 89%
    08:00 +9°C° 0.1 mm 7 mps 747 mmHg 83%
    09:00 +9°C° 0.1 mm 6 mps 748 mmHg 77%
    10:00 +10°C° 0.1 mm 6 mps 748 mmHg 71%
    11:00 +10°C° 0 mm 5 mps 748 mmHg 65%
    12:00 +12°C° 0 mm 5 mps 748 mmHg 59%
    13:00 +13°C° 0 mm 4 mps 749 mmHg 54%
    14:00 +12°C° 0 mm 4 mps 749 mmHg 58%
    15:00 +11°C° 0 mm 4 mps 749 mmHg 63%
    16:00 +10°C° 0 mm 4 mps 750 mmHg 67%
    17:00 +8°C° 0 mm 4 mps 750 mmHg 69%
    18:00 +7°C° 0 mm 4 mps 750 mmHg 72%
    19:00 +7°C° 0 mm 4 mps 750 mmHg 74%
    20:00 +6°C° 0 mm 4 mps 751 mmHg 75%
    21:00 +6°C° 0 mm 4 mps 751 mmHg 75%
    22:00 +5°C° 0 mm 4 mps 751 mmHg 75%
    23:00 +5°C° 0 mm 4 mps 752 mmHg 75%

    Tomorrow, 11 December, Tuesday

    Time Temperature Precipitation Wind Pressure Humidity
    00:00 +5°C° 0 mm 4 mps 752 mmHg 74%
    01:00 +5°C° 0 mm 5 mps 752 mmHg 74%
    02:00 +4°C° 0 mm 4 mps 752 mmHg 74%
    03:00 +4°C° 0 mm 4 mps 752 mmHg 74%
    04:00 +4°C° 0 mm 4 mps 752 mmHg 74%
    05:00 +4°C° 0 mm 4 mps 752 mmHg 74%
    06:00 +4°C° 0 mm 4 mps 753 mmHg 73%
    07:00 +4°C° 0 mm 4 mps 753 mmHg 73%
    08:00 +5°C° 0 mm 4 mps 753 mmHg 67%
    09:00 +6°C° 0 mm 4 mps 753 mmHg 60%
    10:00 +7°C° 0 mm 4 mps 754 mmHg 54%
    11:00 +9°C° 0 mm 3 mps 753 mmHg 50%
    12:00 +9°C° 0 mm 3 mps 753 mmHg 47%
    13:00 +10°C° 0 mm 3 mps 753 mmHg 43%
    14:00 +9°C° 0 mm 2 mps 753 mmHg 47%
    15:00 +8°C° 0 mm 2 mps 753 mmHg 51%
    16:00 +7°C° 0 mm 2 mps 753 mmHg 55%
    17:00 +7°C° 0 mm 2 mps 754 mmHg 57%
    18:00 +6°C° 0 mm 2 mps 754 mmHg 59%
    19:00 +5°C° 0 mm 2 mps 754 mmHg 62%
    20:00 +5°C° 0.1 mm 2 mps 755 mmHg 63%
    21:00 +4°C° 0.1 mm 3 mps 755 mmHg 63%
    22:00 +4°C° 0.1 mm 3 mps 755 mmHg 64%
    23:00 +4°C° 0.1 mm 3 mps 755 mmHg 65%

    Day after tomorrow, 12 December, Wednesday

    Time Temperature Precipitation Wind Pressure Humidity
    00:00 +4°C° 0.1 mm 3 mps 755 mmHg 66%
    01:00 +4°C° 0.1 mm 3 mps 756 mmHg 66%
    02:00 +3°C° 0 mm 3 mps 756 mmHg 68%
    03:00 +3°C° 0 mm 3 mps 756 mmHg 69%
    04:00 +2°C° 0 mm 3 mps 756 mmHg 70%
    05:00 +2°C° 0 mm 3 mps 756 mmHg 70%
    06:00 +2°C° 0 mm 3 mps 757 mmHg 70%
    07:00 +2°C° 0 mm 3 mps 757 mmHg 69%
    08:00 +4°C° 0 mm 2 mps 757 mmHg 62%
    09:00 +6°C° 0 mm 2 mps 757 mmHg 54%
    10:00 +7°C° 0 mm 2 mps 758 mmHg 47%
    11:00 +7°C° 0 mm 2 mps 757 mmHg 42%
    12:00 +9°C° 0 mm 1 mps 757 mmHg 38%
    13:00 +9°C° 0 mm 1 mps 757 mmHg 34%
    14:00 +8°C° 0 mm 1 mps 757 mmHg 37%
    15:00 +7°C° 0 mm 1 mps 757 mmHg 41%
    16:00 +6°C° 0 mm 1 mps 757 mmHg 45%
    17:00 +6°C° 0 mm 1 mps 757 mmHg 45%
    18:00 +4°C° 0 mm 2 mps 757 mmHg 45%
    19:00 +4°C° 0 mm 2 mps 757 mmHg 45%
    20:00 +4°C° 0 mm 2 mps 757 mmHg 45%
    21:00 +3°C° 0 mm 3 mps 757 mmHg 44%
    22:00 +3°C° 0 mm 3 mps 757 mmHg 44%
    23:00 +3°C° 0 mm 3 mps 757 mmHg 43%

    13 December, Thursday

    Time Temperature Precipitation Wind Pressure Humidity
    00:00 +4°C° 0 mm 3 mps 757 mmHg 42%
    01:00 +4°C° 0 mm 3 mps 756 mmHg 41%
    02:00 +4°C° 0.1 mm 4 mps 756 mmHg 40%
    03:00 +4°C° 0.1 mm 4 mps 756 mmHg 39%
    04:00 +4°C° 0.1 mm 4 mps 756 mmHg 37%
    05:00 +3°C° 0.1 mm 5 mps 755 mmHg 39%
    06:00 +3°C° 0.1 mm 5 mps 755 mmHg 40%
    07:00 +3°C° 0.1 mm 5 mps 755 mmHg 42%
    08:00 +5°C° 0.1 mm 5 mps 755 mmHg 44%
    09:00 +6°C° 0.1 mm 5 mps 755 mmHg 47%
    10:00 +6°C° 0.1 mm 5 mps 755 mmHg 49%
    11:00 +6°C° 0.2 mm 5 mps 754 mmHg 56%
    12:00 +6°C° 0.2 mm 5 mps 754 mmHg 63%
    13:00 +6°C° 0.2 mm 5 mps 754 mmHg 70%
    14:00 +6°C° 0.8 mm 5 mps 753 mmHg 73%
    15:00 +6°C° 0.8 mm 4 mps 753 mmHg 77%
    16:00 +6°C° 0.8 mm 4 mps 753 mmHg 80%
    17:00 +6°C° 0.4 mm 4 mps 753 mmHg 81%
    18:00 +6°C° 0.4 mm 4 mps 754 mmHg 81%
    19:00 +6°C° 0.4 mm 4 mps 754 mmHg 81%
    20:00 +6°C° 0.4 mm 4 mps 754 mmHg 82%
    21:00 +6°C° 0.4 mm 4 mps 753 mmHg 83%
    22:00 +6°C° 0.4 mm 5 mps 753 mmHg 84%
    23:00 +7°C° 0.7 mm 5 mps 753 mmHg 85%

    14 December, Friday

    Time Temperature Precipitation Wind Pressure Humidity
    00:00 +7°C° 0.7 mm 5 mps 752 mmHg 87%
    01:00 +7°C° 0.7 mm 6 mps 752 mmHg 88%
    02:00 +7°C° 0.8 mm 6 mps 751 mmHg 88%
    03:00 +6°C° 0.8 mm 7 mps 751 mmHg 87%
    04:00 +6°C° 0.8 mm 7 mps 750 mmHg 87%
    05:00 +8°C° 0.5 mm 7 mps 750 mmHg 87%
    06:00 +7°C° 0.5 mm 8 mps 749 mmHg 87%
    07:00 +7°C° 0.5 mm 8 mps 749 mmHg 87%
    08:00 +9°C° 0.2 mm 8 mps 749 mmHg 85%
    09:00 +10°C° 0.2 mm 8 mps 749 mmHg 83%
    10:00 +11°C° 0.2 mm 9 mps 748 mmHg 81%
    11:00 +11°C° 0.8 mm 9 mps 748 mmHg 80%
    12:00 +12°C° 0.8 mm 9 mps 747 mmHg 80%
    13:00 +12°C° 0.8 mm 10 mps 746 mmHg 80%
    14:00 +11°C° 2.2 mm 9 mps 746 mmHg 83%
    15:00 +11°C° 2.2 mm 9 mps 745 mmHg 86%
    16:00 +10°C° 2.2 mm 9 mps 745 mmHg 89%
    17:00 +10°C° 2.5 mm 8 mps 745 mmHg 90%
    18:00 +9°C° 2.5 mm 7 mps 745 mmHg 92%
    19:00 +9°C° 2.5 mm 6 mps 745 mmHg 93%
    20:00 +9°C° 0.7 mm 6 mps 745 mmHg 91%
    21:00 +8°C° 0.7 mm 5 mps 745 mmHg 90%
    22:00 +8°C° 0.7 mm 5 mps 745 mmHg 88%
    23:00 +8°C° 0.3 mm 4 mps 745 mmHg 87%

    15 December, Saturday

    Time Temperature Precipitation Wind Pressure Humidity
    00:00 +8°C° 0.3 mm 4 mps 745 mmHg 86%
    01:00 +8°C° 0.3 mm 4 mps 745 mmHg 85%
    02:00 +8°C° 0.3 mm 4 mps 745 mmHg 86%
    03:00 +8°C° 0.3 mm 4 mps 745 mmHg 86%
    04:00 +7°C° 0.3 mm 4 mps 745 mmHg 86%
    05:00 +8°C° 0.3 mm 3 mps 745 mmHg 85%
    06:00 +8°C° 0.3 mm 3 mps 746 mmHg 85%
    07:00 +8°C° 0.3 mm 3 mps 746 mmHg 84%
    08:00 +9°C° 0.3 mm 3 mps 746 mmHg 81%
    09:00 +10°C° 0.3 mm 3 mps 747 mmHg 79%
    10:00 +10°C° 0.3 mm 4 mps 747 mmHg 76%
    11:00 +11°C° 0.2 mm 4 mps 747 mmHg 74%
    12:00 +10°C° 0.2 mm 5 mps 748 mmHg 72%
    13:00 +12°C° 0.2 mm 5 mps 748 mmHg 70%
    14:00 +10°C° 0.1 mm 5 mps 748 mmHg 73%
    15:00 +9°C° 0.1 mm 6 mps 749 mmHg 75%
    16:00 +8°C° 0.1 mm 6 mps 749 mmHg 78%
    17:00 +8°C° 0 mm 6 mps 750 mmHg 78%
    18:00 +7°C° 0 mm 6 mps 750 mmHg 79%
    19:00 +5°C° 0 mm 6 mps 751 mmHg 79%
    20:00 +6°C° 0 mm 5 mps 751 mmHg 79%
    21:00 +6°C° 0 mm 5 mps 752 mmHg 78%
    22:00 +5°C° 0 mm 5 mps 752 mmHg 77%
    23:00 +5°C° 0 mm 5 mps 753 mmHg 77%
    Show more